iso_date,epoch_date,Year,Hour,Min,DOY,POS_DOY,Lat,Lon,BP,Ts,Ta,has_bp,has_ts,has_ta,BuoyID,Buoy_Type,Buoy_Owner,Logistics,Hemisphere
2020-05-31T06:00:00Z,1590904800,2020,6,0,152.25,152.25,65.679,-8.262,-999.00,3.77,-999.0,no,yes,no,300234066316050,SVPVHI,AOML,BJARNI_SAEMUN,North
2020-05-31T09:00:00Z,1590915600,2020,9,0,152.375,152.375,65.7,-8.279,-999.00,3.88,-999.0,no,yes,no,300234066316050,SVPVHI,AOML,BJARNI_SAEMUN,North
2020-05-31T12:00:00Z,1590926400,2020,12,0,152.5,152.5,65.725,-8.253,-999.00,4.02,-999.0,no,yes,no,300234066316050,SVPVHI,AOML,BJARNI_SAEMUN,North
2020-05-31T15:00:00Z,1590937200,2020,15,0,152.625,152.625,65.733,-8.191,-999.00,4.12,-999.0,no,yes,no,300234066316050,SVPVHI,AOML,BJARNI_SAEMUN,North
2020-05-31T18:00:00Z,1590948000,2020,18,0,152.75,152.75,65.728,-8.166,-999.00,4.17,-999.0,no,yes,no,300234066316050,SVPVHI,AOML,BJARNI_SAEMUN,North
2020-05-31T21:00:00Z,1590958800,2020,21,0,152.875,152.875,65.729,-8.189,-999.00,4.1,-999.0,no,yes,no,300234066316050,SVPVHI,AOML,BJARNI_SAEMUN,North
2020-06-01T00:00:00Z,1590969600,2020,0,0,153.0,153.0,65.758,-8.168,-999.00,4.01,-999.0,no,yes,no,300234066316050,SVPVHI,AOML,BJARNI_SAEMUN,North
2020-06-01T03:00:00Z,1590980400,2020,3,0,153.125,153.125,65.783,-8.08,-999.00,3.79,-999.0,no,yes,no,300234066316050,SVPVHI,AOML,BJARNI_SAEMUN,North
2020-06-01T06:00:00Z,1590991200,2020,6,0,153.25,153.25,65.773,-7.992,-999.00,3.6,-999.0,no,yes,no,300234066316050,SVPVHI,AOML,BJARNI_SAEMUN,North
2020-06-01T09:00:00Z,1591002000,2020,9,0,153.375,153.375,65.757,-7.982,-999.00,3.67,-999.0,no,yes,no,300234066316050,SVPVHI,AOML,BJARNI_SAEMUN,North
2020-06-01T12:00:00Z,1591012800,2020,12,0,153.5,153.5,65.763,-7.987,-999.00,3.91,-999.0,no,yes,no,300234066316050,SVPVHI,AOML,BJARNI_SAEMUN,North
2020-06-01T15:00:00Z,1591023600,2020,15,0,153.625,153.625,65.774,-7.926,-999.00,4.84,-999.0,no,yes,no,300234066316050,SVPVHI,AOML,BJARNI_SAEMUN,North
2020-06-01T18:00:00Z,1591034400,2020,18,0,153.75,153.75,65.772,-7.896,-999.00,4.39,-999.0,no,yes,no,300234066316050,SVPVHI,AOML,BJARNI_SAEMUN,North
2020-06-01T21:00:00Z,1591045200,2020,21,0,153.875,153.875,65.774,-7.909,-999.00,4.64,-999.0,no,yes,no,300234066316050,SVPVHI,AOML,BJARNI_SAEMUN,North
2020-06-02T00:00:00Z,1591056000,2020,0,0,154.0,154.0,65.782,-7.918,-999.00,4.35,-999.0,no,yes,no,300234066316050,SVPVHI,AOML,BJARNI_SAEMUN,North
2020-06-02T03:00:00Z,1591066800,2020,3,0,154.125,154.125,65.789,-7.901,-999.00,4.11,-999.0,no,yes,no,300234066316050,SVPVHI,AOML,BJARNI_SAEMUN,North
2020-06-02T06:00:00Z,1591077600,2020,6,0,154.25,154.25,65.791,-7.871,-999.00,4.06,-999.0,no,yes,no,300234066316050,SVPVHI,AOML,BJARNI_SAEMUN,North
2020-06-02T09:00:00Z,1591088400,2020,9,0,154.375,154.375,65.786,-7.862,-999.00,4.33,-999.0,no,yes,no,300234066316050,SVPVHI,AOML,BJARNI_SAEMUN,North
2020-06-02T12:00:00Z,1591099200,2020,12,0,154.5,154.5,65.78,-7.864,-999.00,4.43,-999.0,no,yes,no,300234066316050,SVPVHI,AOML,BJARNI_SAEMUN,North
2020-06-02T15:00:00Z,1591110000,2020,15,0,154.625,154.625,65.784,-7.863,-999.00,4.95,-999.0,no,yes,no,300234066316050,SVPVHI,AOML,BJARNI_SAEMUN,North
2020-06-02T18:00:00Z,1591120800,2020,18,0,154.75,154.75,65.779,-7.799,-999.00,5.27,-999.0,no,yes,no,300234066316050,SVPVHI,AOML,BJARNI_SAEMUN,North
2020-06-02T21:00:00Z,1591131600,2020,21,0,154.875,154.875,65.767,-7.794,-999.00,4.99,-999.0,no,yes,no,300234066316050,SVPVHI,AOML,BJARNI_SAEMUN,North
2020-06-03T00:00:00Z,1591142400,2020,0,0,155.0,155.0,65.764,-7.794,-999.00,4.97,-999.0,no,yes,no,300234066316050,SVPVHI,AOML,BJARNI_SAEMUN,North
2020-06-03T03:00:00Z,1591153200,2020,3,0,155.125,155.125,65.769,-7.775,-999.00,4.8,-999.0,no,yes,no,300234066316050,SVPVHI,AOML,BJARNI_SAEMUN,North
2020-06-03T06:00:00Z,1591164000,2020,6,0,155.25,155.25,65.766,-7.728,-999.00,4.79,-999.0,no,yes,no,300234066316050,SVPVHI,AOML,BJARNI_SAEMUN,North
2020-06-03T09:00:00Z,1591174800,2020,9,0,155.375,155.375,65.762,-7.736,-999.00,4.86,-999.0,no,yes,no,300234066316050,SVPVHI,AOML,BJARNI_SAEMUN,North
2020-06-03T12:00:00Z,1591185600,2020,12,0,155.5,155.5,65.761,-7.758,-999.00,5.16,-999.0,no,yes,no,300234066316050,SVPVHI,AOML,BJARNI_SAEMUN,North
2020-06-03T15:00:00Z,1591196400,2020,15,0,155.625,155.625,65.766,-7.799,-999.00,5.28,-999.0,no,yes,no,300234066316050,SVPVHI,AOML,BJARNI_SAEMUN,North
2020-06-03T18:00:00Z,1591207200,2020,18,0,155.75,155.75,65.776,-7.799,-999.00,5.22,-999.0,no,yes,no,300234066316050,SVPVHI,AOML,BJARNI_SAEMUN,North
2020-06-03T21:00:00Z,1591218000,2020,21,0,155.875,155.875,65.78,-7.818,-999.00,5.01,-999.0,no,yes,no,300234066316050,SVPVHI,AOML,BJARNI_SAEMUN,North
2020-06-04T00:00:00Z,1591228800,2020,0,0,156.0,156.0,65.781,-7.869,-999.00,4.97,-999.0,no,yes,no,300234066316050,SVPVHI,AOML,BJARNI_SAEMUN,North
2020-06-04T03:00:00Z,1591239600,2020,3,0,156.125,156.125,65.792,-7.915,-999.00,4.43,-999.0,no,yes,no,300234066316050,SVPVHI,AOML,BJARNI_SAEMUN,North
2020-06-04T06:00:00Z,1591250400,2020,6,0,156.25,156.25,65.8,-7.93,-999.00,4.49,-999.0,no,yes,no,300234066316050,SVPVHI,AOML,BJARNI_SAEMUN,North
2020-06-04T09:00:00Z,1591261200,2020,9,0,156.375,156.375,65.796,-7.93,-999.00,4.6,-999.0,no,yes,no,300234066316050,SVPVHI,AOML,BJARNI_SAEMUN,North
2020-06-04T12:00:00Z,1591272000,2020,12,0,156.5,156.5,65.777,-7.977,-999.00,4.47,-999.0,no,yes,no,300234066316050,SVPVHI,AOML,BJARNI_SAEMUN,North
2020-06-04T15:00:00Z,1591282800,2020,15,0,156.625,156.625,65.765,-8.03,-999.00,4.17,-999.0,no,yes,no,300234066316050,SVPVHI,AOML,BJARNI_SAEMUN,North
2020-06-04T18:00:00Z,1591293600,2020,18,0,156.75,156.75,65.753,-8.041,-999.00,4.31,-999.0,no,yes,no,300234066316050,SVPVHI,AOML,BJARNI_SAEMUN,North
2020-06-04T21:00:00Z,1591304400,2020,21,0,156.875,156.875,65.73,-8.062,-999.00,4.29,-999.0,no,yes,no,300234066316050,SVPVHI,AOML,BJARNI_SAEMUN,North
2020-06-05T00:00:00Z,1591315200,2020,0,0,157.0,157.0,65.703,-8.099,-999.00,4.16,-999.0,no,yes,no,300234066316050,SVPVHI,AOML,BJARNI_SAEMUN,North
2020-06-05T03:00:00Z,1591326000,2020,3,0,157.125,157.125,65.669,-8.124,-999.00,4.22,-999.0,no,yes,no,300234066316050,SVPVHI,AOML,BJARNI_SAEMUN,North
2020-06-05T06:00:00Z,1591336800,2020,6,0,157.25,157.25,65.621,-8.118,-999.00,4.22,-999.0,no,yes,no,300234066316050,SVPVHI,AOML,BJARNI_SAEMUN,North
2020-06-05T09:00:00Z,1591347600,2020,9,0,157.375,157.375,65.572,-8.188,-999.00,3.98,-999.0,no,yes,no,300234066316050,SVPVHI,AOML,BJARNI_SAEMUN,North
2020-06-05T12:00:00Z,1591358400,2020,12,0,157.5,157.5,65.547,-8.218,-999.00,4.0,-999.0,no,yes,no,300234066316050,SVPVHI,AOML,BJARNI_SAEMUN,North
2020-06-05T15:00:00Z,1591369200,2020,15,0,157.625,157.625,65.497,-8.192,-999.00,3.87,-999.0,no,yes,no,300234066316050,SVPVHI,AOML,BJARNI_SAEMUN,North
2020-06-05T18:00:00Z,1591380000,2020,18,0,157.75,157.75,65.437,-8.222,-999.00,3.9,-999.0,no,yes,no,300234066316050,SVPVHI,AOML,BJARNI_SAEMUN,North
2020-06-05T21:00:00Z,1591390800,2020,21,0,157.875,157.875,65.415,-8.242,-999.00,3.91,-999.0,no,yes,no,300234066316050,SVPVHI,AOML,BJARNI_SAEMUN,North
2020-06-06T00:00:00Z,1591401600,2020,0,0,158.0,158.0,65.392,-8.226,-999.00,3.89,-999.0,no,yes,no,300234066316050,SVPVHI,AOML,BJARNI_SAEMUN,North
2020-06-06T03:00:00Z,1591412400,2020,3,0,158.125,158.125,65.345,-8.201,-999.00,3.73,-999.0,no,yes,no,300234066316050,SVPVHI,AOML,BJARNI_SAEMUN,North
2020-06-06T06:00:00Z,1591423200,2020,6,0,158.25,158.25,65.295,-8.248,-999.00,3.62,-999.0,no,yes,no,300234066316050,SVPVHI,AOML,BJARNI_SAEMUN,North
2020-06-06T09:00:00Z,1591434000,2020,9,0,158.375,158.375,65.285,-8.275,-999.00,3.7,-999.0,no,yes,no,300234066316050,SVPVHI,AOML,BJARNI_SAEMUN,North
2020-06-06T12:00:00Z,1591444800,2020,12,0,158.5,158.5,65.258,-8.255,-999.00,3.58,-999.0,no,yes,no,300234066316050,SVPVHI,AOML,BJARNI_SAEMUN,North
2020-06-06T15:00:00Z,1591455600,2020,15,0,158.625,158.625,65.204,-8.282,-999.00,3.61,-999.0,no,yes,no,300234066316050,SVPVHI,AOML,BJARNI_SAEMUN,North
2020-06-06T18:00:00Z,1591466400,2020,18,0,158.75,158.75,65.164,-8.347,-999.00,3.52,-999.0,no,yes,no,300234066316050,SVPVHI,AOML,BJARNI_SAEMUN,North
2020-06-06T21:00:00Z,1591477200,2020,21,0,158.875,158.875,65.164,-8.326,-999.00,3.42,-999.0,no,yes,no,300234066316050,SVPVHI,AOML,BJARNI_SAEMUN,North
2020-06-07T00:00:00Z,1591488000,2020,0,0,159.0,159.0,65.132,-8.273,-999.00,3.39,-999.0,no,yes,no,300234066316050,SVPVHI,AOML,BJARNI_SAEMUN,North
2020-06-07T03:00:00Z,1591498800,2020,3,0,159.125,159.125,65.091,-8.31,-999.00,3.35,-999.0,no,yes,no,300234066316050,SVPVHI,AOML,BJARNI_SAEMUN,North
2020-06-07T06:00:00Z,1591509600,2020,6,0,159.25,159.25,65.072,-8.344,-999.00,3.32,-999.0,no,yes,no,300234066316050,SVPVHI,AOML,BJARNI_SAEMUN,North
2020-06-07T09:00:00Z,1591520400,2020,9,0,159.375,159.375,65.068,-8.317,-999.00,3.3,-999.0,no,yes,no,300234066316050,SVPVHI,AOML,BJARNI_SAEMUN,North
2020-06-07T12:00:00Z,1591531200,2020,12,0,159.5,159.5,65.043,-8.291,-999.00,3.35,-999.0,no,yes,no,300234066316050,SVPVHI,AOML,BJARNI_SAEMUN,North
2020-06-07T15:00:00Z,1591542000,2020,15,0,159.625,159.625,65.017,-8.323,-999.00,3.49,-999.0,no,yes,no,300234066316050,SVPVHI,AOML,BJARNI_SAEMUN,North
2020-06-07T18:00:00Z,1591552800,2020,18,0,159.75,159.75,65.013,-8.341,-999.00,3.53,-999.0,no,yes,no,300234066316050,SVPVHI,AOML,BJARNI_SAEMUN,North
2020-06-07T21:00:00Z,1591563600,2020,21,0,159.875,159.875,65.014,-8.284,-999.00,3.63,-999.0,no,yes,no,300234066316050,SVPVHI,AOML,BJARNI_SAEMUN,North
2020-06-08T00:00:00Z,1591574400,2020,0,0,160.0,160.0,65.016,-8.272,-999.00,3.66,-999.0,no,yes,no,300234066316050,SVPVHI,AOML,BJARNI_SAEMUN,North
2020-06-08T03:00:00Z,1591585200,2020,3,0,160.125,160.125,65.025,-8.276,-999.00,3.6,-999.0,no,yes,no,300234066316050,SVPVHI,AOML,BJARNI_SAEMUN,North
2020-06-08T06:00:00Z,1591596000,2020,6,0,160.25,160.25,65.037,-8.295,-999.00,3.55,-999.0,no,yes,no,300234066316050,SVPVHI,AOML,BJARNI_SAEMUN,North
2020-06-08T09:00:00Z,1591606800,2020,9,0,160.375,160.375,65.062,-8.281,-999.00,3.59,-999.0,no,yes,no,300234066316050,SVPVHI,AOML,BJARNI_SAEMUN,North
2020-06-08T12:00:00Z,1591617600,2020,12,0,160.5,160.5,65.078,-8.25,-999.00,3.64,-999.0,no,yes,no,300234066316050,SVPVHI,AOML,BJARNI_SAEMUN,North
2020-06-08T15:00:00Z,1591628400,2020,15,0,160.625,160.625,65.079,-8.278,-999.00,3.77,-999.0,no,yes,no,300234066316050,SVPVHI,AOML,BJARNI_SAEMUN,North
2020-06-08T18:00:00Z,1591639200,2020,18,0,160.75,160.75,65.091,-8.321,-999.00,3.92,-999.0,no,yes,no,300234066316050,SVPVHI,AOML,BJARNI_SAEMUN,North
2020-06-08T21:00:00Z,1591650000,2020,21,0,160.875,160.875,65.114,-8.322,-999.00,3.88,-999.0,no,yes,no,300234066316050,SVPVHI,AOML,BJARNI_SAEMUN,North
2020-06-09T00:00:00Z,1591660800,2020,0,0,161.0,161.0,65.136,-8.308,-999.00,3.84,-999.0,no,yes,no,300234066316050,SVPVHI,AOML,BJARNI_SAEMUN,North
2020-06-09T03:00:00Z,1591671600,2020,3,0,161.125,161.125,65.149,-8.318,-999.00,3.89,-999.0,no,yes,no,300234066316050,SVPVHI,AOML,BJARNI_SAEMUN,North
2020-06-09T06:00:00Z,1591682400,2020,6,0,161.25,161.25,65.177,-8.366,-999.00,3.89,-999.0,no,yes,no,300234066316050,SVPVHI,AOML,BJARNI_SAEMUN,North
2020-06-09T09:00:00Z,1591693200,2020,9,0,161.375,161.375,65.214,-8.416,-999.00,4.08,-999.0,no,yes,no,300234066316050,SVPVHI,AOML,BJARNI_SAEMUN,North
2020-06-09T12:00:00Z,1591704000,2020,12,0,161.5,161.5,65.252,-8.428,-999.00,3.96,-999.0,no,yes,no,300234066316050,SVPVHI,AOML,BJARNI_SAEMUN,North
2020-06-09T15:00:00Z,1591714800,2020,15,0,161.625,161.625,65.278,-8.431,-999.00,3.87,-999.0,no,yes,no,300234066316050,SVPVHI,AOML,BJARNI_SAEMUN,North
2020-06-09T18:00:00Z,1591725600,2020,18,0,161.75,161.75,65.278,-8.454,-999.00,3.9,-999.0,no,yes,no,300234066316050,SVPVHI,AOML,BJARNI_SAEMUN,North
2020-06-09T21:00:00Z,1591736400,2020,21,0,161.875,161.875,65.286,-8.518,-999.00,3.92,-999.0,no,yes,no,300234066316050,SVPVHI,AOML,BJARNI_SAEMUN,North
2020-06-10T00:00:00Z,1591747200,2020,0,0,162.0,162.0,65.32,-8.55,-999.00,3.87,-999.0,no,yes,no,300234066316050,SVPVHI,AOML,BJARNI_SAEMUN,North
2020-06-10T03:00:00Z,1591758000,2020,3,0,162.125,162.125,65.333,-8.52,-999.00,3.9,-999.0,no,yes,no,300234066316050,SVPVHI,AOML,BJARNI_SAEMUN,North
2020-06-10T06:00:00Z,1591768800,2020,6,0,162.25,162.25,65.32,-8.559,-999.00,4.01,-999.0,no,yes,no,300234066316050,SVPVHI,AOML,BJARNI_SAEMUN,North
2020-06-10T09:00:00Z,1591779600,2020,9,0,162.375,162.375,65.322,-8.629,-999.00,4.17,-999.0,no,yes,no,300234066316050,SVPVHI,AOML,BJARNI_SAEMUN,North
2020-06-10T12:00:00Z,1591790400,2020,12,0,162.5,162.5,65.354,-8.658,-999.00,4.25,-999.0,no,yes,no,300234066316050,SVPVHI,AOML,BJARNI_SAEMUN,North
2020-06-10T15:00:00Z,1591801200,2020,15,0,162.625,162.625,65.372,-8.631,-999.00,4.48,-999.0,no,yes,no,300234066316050,SVPVHI,AOML,BJARNI_SAEMUN,North
2020-06-10T18:00:00Z,1591812000,2020,18,0,162.75,162.75,65.344,-8.626,-999.00,4.84,-999.0,no,yes,no,300234066316050,SVPVHI,AOML,BJARNI_SAEMUN,North
2020-06-10T21:00:00Z,1591822800,2020,21,0,162.875,162.875,65.333,-8.706,-999.00,4.86,-999.0,no,yes,no,300234066316050,SVPVHI,AOML,BJARNI_SAEMUN,North
2020-06-11T00:00:00Z,1591833600,2020,0,0,163.0,163.0,65.355,-8.747,-999.00,4.83,-999.0,no,yes,no,300234066316050,SVPVHI,AOML,BJARNI_SAEMUN,North
2020-06-11T03:00:00Z,1591844400,2020,3,0,163.125,163.125,65.371,-8.742,-999.00,4.73,-999.0,no,yes,no,300234066316050,SVPVHI,AOML,BJARNI_SAEMUN,North
2020-06-11T06:00:00Z,1591855200,2020,6,0,163.25,163.25,65.366,-8.721,-999.00,4.74,-999.0,no,yes,no,300234066316050,SVPVHI,AOML,BJARNI_SAEMUN,North
2020-06-11T09:00:00Z,1591866000,2020,9,0,163.375,163.375,65.351,-8.748,-999.00,4.81,-999.0,no,yes,no,300234066316050,SVPVHI,AOML,BJARNI_SAEMUN,North
2020-06-11T12:00:00Z,1591876800,2020,12,0,163.5,163.5,65.37,-8.79,-999.00,5.02,-999.0,no,yes,no,300234066316050,SVPVHI,AOML,BJARNI_SAEMUN,North
2020-06-11T15:00:00Z,1591887600,2020,15,0,163.625,163.625,65.406,-8.787,-999.00,4.94,-999.0,no,yes,no,300234066316050,SVPVHI,AOML,BJARNI_SAEMUN,North
2020-06-11T18:00:00Z,1591898400,2020,18,0,163.75,163.75,65.428,-8.742,-999.00,4.97,-999.0,no,yes,no,300234066316050,SVPVHI,AOML,BJARNI_SAEMUN,North
2020-06-11T21:00:00Z,1591909200,2020,21,0,163.875,163.875,65.426,-8.683,-999.00,4.79,-999.0,no,yes,no,300234066316050,SVPVHI,AOML,BJARNI_SAEMUN,North
2020-06-12T00:00:00Z,1591920000,2020,0,0,164.0,164.0,65.419,-8.674,-999.00,4.65,-999.0,no,yes,no,300234066316050,SVPVHI,AOML,BJARNI_SAEMUN,North
2020-06-12T03:00:00Z,1591930800,2020,3,0,164.125,164.125,65.432,-8.684,-999.00,4.64,-999.0,no,yes,no,300234066316050,SVPVHI,AOML,BJARNI_SAEMUN,North
2020-06-12T06:00:00Z,1591941600,2020,6,0,164.25,164.25,65.455,-8.652,-999.00,4.71,-999.0,no,yes,no,300234066316050,SVPVHI,AOML,BJARNI_SAEMUN,North
2020-06-12T09:00:00Z,1591952400,2020,9,0,164.375,164.375,65.454,-8.624,-999.00,4.79,-999.0,no,yes,no,300234066316050,SVPVHI,AOML,BJARNI_SAEMUN,North
2020-06-12T12:00:00Z,1591963200,2020,12,0,164.5,164.5,65.462,-8.618,-999.00,4.89,-999.0,no,yes,no,300234066316050,SVPVHI,AOML,BJARNI_SAEMUN,North
2020-06-12T15:00:00Z,1591974000,2020,15,0,164.625,164.625,65.476,-8.623,-999.00,5.07,-999.0,no,yes,no,300234066316050,SVPVHI,AOML,BJARNI_SAEMUN,North
2020-06-12T18:00:00Z,1591984800,2020,18,0,164.75,164.75,65.498,-8.625,-999.00,5.0,-999.0,no,yes,no,300234066316050,SVPVHI,AOML,BJARNI_SAEMUN,North
2020-06-12T21:00:00Z,1591995600,2020,21,0,164.875,164.875,65.515,-8.594,-999.00,4.85,-999.0,no,yes,no,300234066316050,SVPVHI,AOML,BJARNI_SAEMUN,North
2020-06-13T00:00:00Z,1592006400,2020,0,0,165.0,165.0,65.52,-8.576,-999.00,4.66,-999.0,no,yes,no,300234066316050,SVPVHI,AOML,BJARNI_SAEMUN,North
2020-06-13T03:00:00Z,1592017200,2020,3,0,165.125,165.125,65.527,-8.584,-999.00,4.71,-999.0,no,yes,no,300234066316050,SVPVHI,AOML,BJARNI_SAEMUN,North
2020-06-13T06:00:00Z,1592028000,2020,6,0,165.25,165.25,65.544,-8.595,-999.00,4.71,-999.0,no,yes,no,300234066316050,SVPVHI,AOML,BJARNI_SAEMUN,North
2020-06-13T09:00:00Z,1592038800,2020,9,0,165.375,165.375,65.553,-8.574,-999.00,4.85,-999.0,no,yes,no,300234066316050,SVPVHI,AOML,BJARNI_SAEMUN,North
2020-06-13T12:00:00Z,1592049600,2020,12,0,165.5,165.5,65.555,-8.548,-999.00,4.87,-999.0,no,yes,no,300234066316050,SVPVHI,AOML,BJARNI_SAEMUN,North
2020-06-13T15:00:00Z,1592060400,2020,15,0,165.625,165.625,65.557,-8.534,-999.00,4.9,-999.0,no,yes,no,300234066316050,SVPVHI,AOML,BJARNI_SAEMUN,North
2020-06-13T18:00:00Z,1592071200,2020,18,0,165.75,165.75,65.569,-8.536,-999.00,4.96,-999.0,no,yes,no,300234066316050,SVPVHI,AOML,BJARNI_SAEMUN,North
2020-06-13T21:00:00Z,1592082000,2020,21,0,165.875,165.875,65.568,-8.516,-999.00,4.91,-999.0,no,yes,no,300234066316050,SVPVHI,AOML,BJARNI_SAEMUN,North
2020-06-14T00:00:00Z,1592092800,2020,0,0,166.0,166.0,65.571,-8.508,-999.00,4.9,-999.0,no,yes,no,300234066316050,SVPVHI,AOML,BJARNI_SAEMUN,North
2020-06-14T03:00:00Z,1592103600,2020,3,0,166.125,166.125,65.584,-8.505,-999.00,4.85,-999.0,no,yes,no,300234066316050,SVPVHI,AOML,BJARNI_SAEMUN,North
2020-06-14T06:00:00Z,1592114400,2020,6,0,166.25,166.25,65.599,-8.49,-999.00,4.85,-999.0,no,yes,no,300234066316050,SVPVHI,AOML,BJARNI_SAEMUN,North
2020-06-14T09:00:00Z,1592125200,2020,9,0,166.375,166.375,65.608,-8.465,-999.00,4.94,-999.0,no,yes,no,300234066316050,SVPVHI,AOML,BJARNI_SAEMUN,North
2020-06-14T12:00:00Z,1592136000,2020,12,0,166.5,166.5,65.611,-8.461,-999.00,5.0,-999.0,no,yes,no,300234066316050,SVPVHI,AOML,BJARNI_SAEMUN,North
2020-06-14T15:00:00Z,1592146800,2020,15,0,166.625,166.625,65.624,-8.46,-999.00,5.13,-999.0,no,yes,no,300234066316050,SVPVHI,AOML,BJARNI_SAEMUN,North
2020-06-14T18:00:00Z,1592157600,2020,18,0,166.75,166.75,65.638,-8.437,-999.00,5.19,-999.0,no,yes,no,300234066316050,SVPVHI,AOML,BJARNI_SAEMUN,North
2020-06-14T21:00:00Z,1592168400,2020,21,0,166.875,166.875,65.64,-8.409,-999.00,5.28,-999.0,no,yes,no,300234066316050,SVPVHI,AOML,BJARNI_SAEMUN,North
2020-06-15T00:00:00Z,1592179200,2020,0,0,167.0,167.0,65.634,-8.405,-999.00,5.24,-999.0,no,yes,no,300234066316050,SVPVHI,AOML,BJARNI_SAEMUN,North
2020-06-15T03:00:00Z,1592190000,2020,3,0,167.125,167.125,65.646,-8.428,-999.00,5.21,-999.0,no,yes,no,300234066316050,SVPVHI,AOML,BJARNI_SAEMUN,North
2020-06-15T06:00:00Z,1592200800,2020,6,0,167.25,167.25,65.668,-8.401,-999.00,5.16,-999.0,no,yes,no,300234066316050,SVPVHI,AOML,BJARNI_SAEMUN,North
2020-06-15T09:00:00Z,1592211600,2020,9,0,167.375,167.375,65.68,-8.371,-999.00,5.11,-999.0,no,yes,no,300234066316050,SVPVHI,AOML,BJARNI_SAEMUN,North
2020-06-15T12:00:00Z,1592222400,2020,12,0,167.5,167.5,65.683,-8.351,-999.00,5.24,-999.0,no,yes,no,300234066316050,SVPVHI,AOML,BJARNI_SAEMUN,North
2020-06-15T15:00:00Z,1592233200,2020,15,0,167.625,167.625,65.695,-8.354,-999.00,5.37,-999.0,no,yes,no,300234066316050,SVPVHI,AOML,BJARNI_SAEMUN,North
2020-06-15T18:00:00Z,1592244000,2020,18,0,167.75,167.75,65.722,-8.336,-999.00,5.39,-999.0,no,yes,no,300234066316050,SVPVHI,AOML,BJARNI_SAEMUN,North
2020-06-15T21:00:00Z,1592254800,2020,21,0,167.875,167.875,65.741,-8.294,-999.00,5.32,-999.0,no,yes,no,300234066316050,SVPVHI,AOML,BJARNI_SAEMUN,North
2020-06-16T00:00:00Z,1592265600,2020,0,0,168.0,168.0,65.75,-8.276,-999.00,5.22,-999.0,no,yes,no,300234066316050,SVPVHI,AOML,BJARNI_SAEMUN,North
2020-06-16T03:00:00Z,1592276400,2020,3,0,168.125,168.125,65.761,-8.267,-999.00,5.18,-999.0,no,yes,no,300234066316050,SVPVHI,AOML,BJARNI_SAEMUN,North
2020-06-16T06:00:00Z,1592287200,2020,6,0,168.25,168.25,65.766,-8.254,-999.00,5.2,-999.0,no,yes,no,300234066316050,SVPVHI,AOML,BJARNI_SAEMUN,North
2020-06-16T09:00:00Z,1592298000,2020,9,0,168.375,168.375,65.771,-8.27,-999.00,5.23,-999.0,no,yes,no,300234066316050,SVPVHI,AOML,BJARNI_SAEMUN,North
2020-06-16T12:00:00Z,1592308800,2020,12,0,168.5,168.5,65.783,-8.262,-999.00,5.94,-999.0,no,yes,no,300234066316050,SVPVHI,AOML,BJARNI_SAEMUN,North
2020-06-16T15:00:00Z,1592319600,2020,15,0,168.625,168.625,65.784,-8.217,-999.00,6.41,-999.0,no,yes,no,300234066316050,SVPVHI,AOML,BJARNI_SAEMUN,North
2020-06-16T18:00:00Z,1592330400,2020,18,0,168.75,168.75,65.777,-8.195,-999.00,6.31,-999.0,no,yes,no,300234066316050,SVPVHI,AOML,BJARNI_SAEMUN,North
2020-06-16T21:00:00Z,1592341200,2020,21,0,168.875,168.875,65.778,-8.211,-999.00,6.3,-999.0,no,yes,no,300234066316050,SVPVHI,AOML,BJARNI_SAEMUN,North
2020-06-17T00:00:00Z,1592352000,2020,0,0,169.0,169.0,65.79,-8.228,-999.00,6.02,-999.0,no,yes,no,300234066316050,SVPVHI,AOML,BJARNI_SAEMUN,North
2020-06-17T03:00:00Z,1592362800,2020,3,0,169.125,169.125,65.795,-8.189,-999.00,6.0,-999.0,no,yes,no,300234066316050,SVPVHI,AOML,BJARNI_SAEMUN,North
2020-06-17T06:00:00Z,1592373600,2020,6,0,169.25,169.25,65.77,-8.171,-999.00,5.61,-999.0,no,yes,no,300234066316050,SVPVHI,AOML,BJARNI_SAEMUN,North
2020-06-17T09:00:00Z,1592384400,2020,9,0,169.375,169.375,65.748,-8.23,-999.00,5.61,-999.0,no,yes,no,300234066316050,SVPVHI,AOML,BJARNI_SAEMUN,North
2020-06-17T12:00:00Z,1592395200,2020,12,0,169.5,169.5,65.745,-8.285,-999.00,5.57,-999.0,no,yes,no,300234066316050,SVPVHI,AOML,BJARNI_SAEMUN,North
2020-06-17T15:00:00Z,1592406000,2020,15,0,169.625,169.625,65.74,-8.286,-999.00,5.78,-999.0,no,yes,no,300234066316050,SVPVHI,AOML,BJARNI_SAEMUN,North
2020-06-17T18:00:00Z,1592416800,2020,18,0,169.75,169.75,65.727,-8.3,-999.00,5.8,-999.0,no,yes,no,300234066316050,SVPVHI,AOML,BJARNI_SAEMUN,North
2020-06-17T21:00:00Z,1592427600,2020,21,0,169.875,169.875,65.72,-8.338,-999.00,5.9,-999.0,no,yes,no,300234066316050,SVPVHI,AOML,BJARNI_SAEMUN,North
2020-06-18T00:00:00Z,1592438400,2020,0,0,170.0,170.0,65.716,-8.384,-999.00,5.69,-999.0,no,yes,no,300234066316050,SVPVHI,AOML,BJARNI_SAEMUN,North
2020-06-18T03:00:00Z,1592449200,2020,3,0,170.125,170.125,65.714,-8.405,-999.00,5.75,-999.0,no,yes,no,300234066316050,SVPVHI,AOML,BJARNI_SAEMUN,North
2020-06-18T06:00:00Z,1592460000,2020,6,0,170.25,170.25,65.709,-8.418,-999.00,5.78,-999.0,no,yes,no,300234066316050,SVPVHI,AOML,BJARNI_SAEMUN,North
2020-06-18T09:00:00Z,1592470800,2020,9,0,170.375,170.375,65.71,-8.464,-999.00,5.74,-999.0,no,yes,no,300234066316050,SVPVHI,AOML,BJARNI_SAEMUN,North
2020-06-18T12:00:00Z,1592481600,2020,12,0,170.5,170.5,65.717,-8.494,-999.00,5.79,-999.0,no,yes,no,300234066316050,SVPVHI,AOML,BJARNI_SAEMUN,North
2020-06-18T15:00:00Z,1592492400,2020,15,0,170.625,170.625,65.72,-8.503,-999.00,5.9,-999.0,no,yes,no,300234066316050,SVPVHI,AOML,BJARNI_SAEMUN,North
2020-06-18T18:00:00Z,1592503200,2020,18,0,170.75,170.75,65.721,-8.5,-999.00,5.94,-999.0,no,yes,no,300234066316050,SVPVHI,AOML,BJARNI_SAEMUN,North
2020-06-18T21:00:00Z,1592514000,2020,21,0,170.875,170.875,65.725,-8.523,-999.00,5.99,-999.0,no,yes,no,300234066316050,SVPVHI,AOML,BJARNI_SAEMUN,North
2020-06-19T00:00:00Z,1592524800,2020,0,0,171.0,171.0,65.734,-8.552,-999.00,6.01,-999.0,no,yes,no,300234066316050,SVPVHI,AOML,BJARNI_SAEMUN,North
2020-06-19T03:00:00Z,1592535600,2020,3,0,171.125,171.125,65.737,-8.562,-999.00,5.97,-999.0,no,yes,no,300234066316050,SVPVHI,AOML,BJARNI_SAEMUN,North
2020-06-19T06:00:00Z,1592546400,2020,6,0,171.25,171.25,65.74,-8.564,-999.00,6.04,-999.0,no,yes,no,300234066316050,SVPVHI,AOML,BJARNI_SAEMUN,North
2020-06-19T09:00:00Z,1592557200,2020,9,0,171.375,171.375,65.739,-8.562,-999.00,6.07,-999.0,no,yes,no,300234066316050,SVPVHI,AOML,BJARNI_SAEMUN,North
2020-06-19T12:00:00Z,1592568000,2020,12,0,171.5,171.5,65.739,-8.581,-999.00,6.37,-999.0,no,yes,no,300234066316050,SVPVHI,AOML,BJARNI_SAEMUN,North
2020-06-19T15:00:00Z,1592578800,2020,15,0,171.625,171.625,65.743,-8.585,-999.00,6.67,-999.0,no,yes,no,300234066316050,SVPVHI,AOML,BJARNI_SAEMUN,North
2020-06-19T18:00:00Z,1592589600,2020,18,0,171.75,171.75,65.747,-8.591,-999.00,6.53,-999.0,no,yes,no,300234066316050,SVPVHI,AOML,BJARNI_SAEMUN,North
2020-06-19T21:00:00Z,1592600400,2020,21,0,171.875,171.875,65.75,-8.614,-999.00,6.3,-999.0,no,yes,no,300234066316050,SVPVHI,AOML,BJARNI_SAEMUN,North
2020-06-20T00:00:00Z,1592611200,2020,0,0,172.0,172.0,65.751,-8.653,-999.00,6.16,-999.0,no,yes,no,300234066316050,SVPVHI,AOML,BJARNI_SAEMUN,North
2020-06-20T03:00:00Z,1592622000,2020,3,0,172.125,172.125,65.754,-8.695,-999.00,6.12,-999.0,no,yes,no,300234066316050,SVPVHI,AOML,BJARNI_SAEMUN,North
2020-06-20T06:00:00Z,1592632800,2020,6,0,172.25,172.25,65.761,-8.736,-999.00,5.98,-999.0,no,yes,no,300234066316050,SVPVHI,AOML,BJARNI_SAEMUN,North